Terminal Aerodrome Forecast
Issued by NWS

Home | Current Version | Previous Version | Graphics & Text | Print | Product List | Glossary On
Versions: 1 2 3 4 5 6 7 8 9 10 11 12 13 14 15 16 17 18 19
365
FTUS43 KGRB 042330
TAFAUW
TAF
KAUW 042330Z 0500/0524 20003KT 5SM -SN SCT014 BKN022
      TEMPO 0500/0503 1 1/2SM -SN BR BKN015
     FM050300 28005KT P6SM SCT012 BKN020
     FM051000 31005KT P6SM SCT025
     FM051600 25006KT P6SM SCT030 BKN120=

USA.gov is the U.S. government's official web portal to all federal, state and local government web resources and services.